| time (UTC) | temp C | wind direction | speed KPH | gust KPH | rain 1hr cm | rain 24hr cm | rain mn cm | humidity % | barometer mb |
| 20260507183056 | 17 | 58 | 12.9 | 20.9 | 0.00 | 0.00 | 0.00 | 49 | 1011.5 |
| 20260507181603 | 17 | 166 | 9.7 | 20.9 | 0.00 | 0.00 | 0.00 | 48 | 1011.6 |
| 20260507180051 | 16 | 165 | 8.0 | 20.9 | 0.00 | 0.00 | 0.00 | 49 | 1011.7 |
| 20260507174555 | 17 | 66 | 12.9 | 20.9 | 0.00 | 0.00 | 0.00 | 50 | 1011.7 |
| 20260507173048 | 17 | 40 | 11.3 | 20.9 | 0.00 | 0.00 | 0.00 | 50 | 1011.8 |
| 20260507171545 | 16 | 117 | 6.4 | 17.7 | 0.00 | 0.00 | 0.00 | 52 | 1012.0 |
| 20260507170021 | 16 | 121 | 9.7 | 22.5 | 0.00 | 0.00 | 0.00 | 53 | 1012.3 |
| 20260507164513 | 16 | 63 | 12.9 | 20.9 | 0.00 | 0.00 | 0.00 | 52 | 1012.2 |
| 20260507163008 | 16 | 150 | 4.8 | 17.7 | 0.00 | 0.00 | 0.00 | 52 | 1012.4 |
| 20260507161507 | 16 | 182 | 6.4 | 14.5 | 0.00 | 0.00 | 0.00 | 54 | 1012.6 |
| 20260507160012 | 15 | 32 | 6.4 | 12.9 | 0.00 | 0.00 | 0.00 | 56 | 1012.6 |
| 20260507154504 | 15 | 188 | 1.6 | 12.9 | 0.00 | 0.00 | 0.00 | 56 | 1012.8 |
| 20260507153103 | 15 | 69 | 8.0 | 12.9 | 0.00 | 0.00 | 0.00 | 56 | 1012.9 |
| 20260507151559 | 15 | 252 | 11.3 | 20.9 | 0.00 | 0.00 | 0.00 | 58 | 1012.7 |
| 20260507150057 | 14 | 99 | 1.6 | 12.9 | 0.00 | 0.03 | 0.00 | 57 | 1012.9 |
| 20260507144557 | 14 | 34 | 4.8 | 14.5 | 0.00 | 0.03 | 0.00 | 58 | 1013.0 |
| 20260507143050 | 13 | 146 | 4.8 | 12.9 | 0.00 | 0.03 | 0.00 | 60 | 1013.0 |
| 20260507141547 | 13 | 173 | 3.2 | 20.9 | 0.00 | 0.03 | 0.00 | 59 | 1013.0 |
| 20260507140049 | 13 | 176 | 6.4 | 14.5 | 0.00 | 0.05 | 0.00 | 62 | 1013.2 |
| 20260507134544 | 12 | 315 | 1.6 | 9.7 | 0.00 | 0.05 | 0.00 | 77 | 1013.2 |
| 20260507133036 | 12 | 308 | 1.6 | 11.3 | 0.00 | 0.05 | 0.00 | 78 | 1013.6 |
| 20260507131550 | 11 | 273 | 0.0 | 0.0 | 0.00 | 0.05 | 0.00 | 83 | 1013.5 |
| 20260507130031 | 11 | 173 | 0.0 | 0.0 | 0.00 | 0.05 | 0.00 | 87 | 1013.5 |
| 20260507124534 | 10 | 185 | 0.0 | 0.0 | 0.00 | 0.05 | 0.00 | 92 | 1013.4 |
| 20260507123029 | 10 | 186 | 0.0 | 0.0 | 0.00 | 0.05 | 0.00 | 93 | 1013.4 |
| 20260507121531 | 10 | 186 | 0.0 | 0.0 | 0.00 | 0.05 | 0.00 | 94 | 1013.5 |
| 20260507120038 | 10 | 186 | 0.0 | 0.0 | 0.00 | 0.08 | 0.00 | 94 | 1013.4 |
| 20260507114527 | 10 | 186 | 0.0 | 0.0 | 0.00 | 0.08 | 0.00 | 94 | 1013.3 |
| 20260507113100 | 9 | 186 | 0.0 | 0.0 | 0.00 | 0.08 | 0.00 | 94 | 1013.5 |
| 20260507111604 | 9 | 186 | 0.0 | 0.0 | 0.00 | 0.08 | 0.00 | 94 | 1013.3 |
| 20260507110055 | 9 | 186 | 0.0 | 0.0 | 0.00 | 0.18 | 0.00 | 93 | 1013.0 |
| 20260507104552 | 9 | 186 | 0.0 | 0.0 | 0.00 | 0.18 | 0.00 | 93 | 1012.9 |
| 20260507103052 | 9 | 186 | 0.0 | 0.0 | 0.00 | 0.18 | 0.00 | 93 | 1012.8 |
| 20260507101602 | 9 | 186 | 0.0 | 0.0 | 0.00 | 0.18 | 0.00 | 93 | 1012.8 |
| 20260507100049 | 8 | 186 | 0.0 | 0.0 | 0.00 | 0.33 | 0.00 | 92 | 1012.5 |
| 20260507094549 | 8 | 186 | 0.0 | 0.0 | 0.00 | 0.33 | 0.00 | 92 | 1012.5 |
| 20260507093053 | 9 | 185 | 0.0 | 0.0 | 0.00 | 0.33 | 0.00 | 93 | 1012.7 |
| 20260507091551 | 9 | 185 | 0.0 | 0.0 | 0.00 | 0.33 | 0.00 | 93 | 1013.0 |
| 20260507090043 | 9 | 185 | 0.0 | 0.0 | 0.00 | 0.43 | 0.00 | 92 | 1012.8 |
| 20260507084543 | 9 | 185 | 0.0 | 0.0 | 0.00 | 0.43 | 0.00 | 92 | 1012.5 |
| 20260507083041 | 9 | 185 | 0.0 | 0.0 | 0.00 | 0.43 | 0.00 | 92 | 1012.5 |
| 20260507081547 | 9 | 185 | 0.0 | 0.0 | 0.00 | 0.43 | 0.00 | 92 | 1012.7 |
| 20260507080008 | 10 | 185 | 0.0 | 0.0 | 0.00 | 0.79 | 0.00 | 91 | 1012.5 |
| 20260507074515 | 10 | 185 | 0.0 | 0.0 | 0.00 | 0.79 | 0.00 | 92 | 1012.8 |
| 20260507073004 | 10 | 185 | 0.0 | 0.0 | 0.00 | 0.79 | 0.00 | 91 | 1012.6 |
| 20260507071504 | 10 | 185 | 0.0 | 0.0 | 0.00 | 0.79 | 0.00 | 91 | 1012.7 |
| 20260507070004 | 10 | 185 | 0.0 | 0.0 | 0.00 | 0.89 | 0.00 | 91 | 1012.5 |
| 20260507064501 | 10 | 184 | 0.0 | 0.0 | 0.00 | 0.89 | 0.00 | 91 | 1012.9 |
| 20260507063100 | 10 | 184 | 0.0 | 0.0 | 0.00 | 0.89 | 0.00 | 91 | 1012.8 |
| 20260507061556 | 10 | 184 | 0.0 | 0.0 | 0.00 | 0.89 | 0.00 | 91 | 1012.7 |
| 20260507060055 | 10 | 184 | 0.0 | 0.0 | 0.00 | 0.94 | 0.00 | 91 | 1012.8 |
| 20260507054635 | 11 | 184 | 0.0 | 0.0 | 0.00 | 0.94 | 0.00 | 90 | 1012.9 |
| 20260507053053 | 11 | 184 | 0.0 | 0.0 | 0.00 | 0.94 | 0.00 | 88 | 1013.0 |
| 20260507051547 | 11 | 184 | 0.0 | 0.0 | 0.00 | 0.94 | 0.00 | 86 | 1013.0 |
| 20260507050050 | 11 | 184 | 0.0 | 0.0 | 0.00 | 0.94 | 0.00 | 87 | 1012.9 |
| 20260507044548 | 12 | 184 | 0.0 | 0.0 | 0.00 | 0.94 | 0.00 | 86 | 1013.1 |
| 20260507043045 | 12 | 184 | 0.0 | 0.0 | 0.00 | 0.94 | 0.00 | 84 | 1013.2 |
| 20260507041509 | 12 | 184 | 0.0 | 0.0 | 0.00 | 0.94 | 0.00 | 82 | 1013.1 |
| 20260507040007 | 12 | 184 | 0.0 | 6.4 | 0.00 | 0.94 | 0.94 | 82 | 1012.8 |
| 20260507034505 | 12 | 185 | 0.0 | 11.3 | 0.00 | 0.94 | 0.94 | 85 | 1012.5 |
| 20260507033006 | 12 | 146 | 3.2 | 9.7 | 0.00 | 0.94 | 0.94 | 92 | 1012.6 |
| 20260507031503 | 12 | 314 | 0.0 | 0.0 | 0.00 | 0.94 | 0.94 | 95 | 1012.4 |
| 20260507030005 | 12 | 315 | 0.0 | 0.0 | 0.00 | 0.94 | 0.94 | 96 | 1012.5 |
| 20260507024600 | 12 | 314 | 0.0 | 0.0 | 0.00 | 0.94 | 0.94 | 95 | 1012.5 |
| 20260507023106 | 12 | 315 | 0.0 | 0.0 | 0.00 | 0.94 | 0.94 | 95 | 1012.6 |
| 20260507021602 | 12 | 315 | 0.0 | 0.0 | 0.00 | 0.94 | 0.94 | 95 | 1012.8 |
| 20260507020100 | 12 | 315 | 0.0 | 0.0 | 0.00 | 0.94 | 0.94 | 95 | 1012.8 |
| 20260507014602 | 13 | 314 | 0.0 | 0.0 | 0.00 | 0.94 | 0.94 | 94 | 1011.6 |
| 20260507013053 | 13 | 313 | 0.0 | 0.0 | 0.00 | 0.94 | 0.94 | 94 | 1012.3 |
| 20260507011552 | 13 | 313 | 0.0 | 0.0 | 0.00 | 0.94 | 0.94 | 94 | 1011.3 |
| 20260507010051 | 13 | 309 | 0.0 | 0.0 | 0.00 | 0.94 | 0.94 | 94 | 1011.6 |
| 20260507004523 | 13 | 308 | 0.0 | 0.0 | 0.00 | 0.94 | 0.94 | 94 | 1010.6 |
| 20260507003021 | 13 | 308 | 0.0 | 3.2 | 0.00 | 0.94 | 0.94 | 93 | 1011.1 |
| 20260507001524 | 13 | 308 | 0.0 | 9.7 | 0.00 | 0.94 | 0.94 | 93 | 1011.2 |
| 20260507000022 | 13 | 344 | 0.0 | 8.0 | 0.00 | 0.94 | 0.94 | 93 | 1010.6 |
| 20260506234515 | 13 | 345 | 0.0 | 3.2 | 0.00 | 0.94 | 0.94 | 92 | 1011.5 |
| 20260506233015 | 13 | 345 | 0.0 | 8.0 | 0.00 | 0.94 | 0.94 | 92 | 1010.9 |
| 20260506231545 | 13 | 355 | 1.6 | 8.0 | 0.00 | 0.94 | 0.94 | 92 | 1010.4 |
| 20260506230045 | 13 | 19 | 1.6 | 6.4 | 0.00 | 0.94 | 0.94 | 91 | 1010.6 |
| 20260506224541 | 13 | 20 | 0.0 | 3.2 | 0.00 | 0.94 | 0.94 | 90 | 1010.9 |
| 20260506223039 | 13 | 20 | 1.6 | 3.2 | 0.00 | 0.94 | 0.94 | 90 | 1011.2 |
| 20260506221538 | 13 | 19 | 3.2 | 8.0 | 0.00 | 0.94 | 0.94 | 89 | 1010.8 |
| 20260506220036 | 14 | 45 | 0.0 | 8.0 | 0.00 | 0.94 | 0.94 | 90 | 1010.7 |
| 20260506214606 | 14 | 40 | 4.8 | 8.0 | 0.00 | 0.94 | 0.94 | 89 | 1010.7 |
| 20260506213005 | 14 | 46 | 1.6 | 8.0 | 0.00 | 0.94 | 0.94 | 88 | 1010.4 |
| 20260506211507 | 14 | 47 | 1.6 | 9.7 | 0.00 | 0.94 | 0.94 | 88 | 1010.2 |
| 20260506210007 | 14 | 36 | 4.8 | 11.3 | 0.00 | 0.94 | 0.94 | 88 | 1010.5 |
| 20260506204502 | 14 | 325 | 0.0 | 8.0 | 0.00 | 0.94 | 0.94 | 88 | 1010.6 |
| 20260506203003 | 14 | 300 | 0.0 | 6.4 | 0.00 | 0.94 | 0.94 | 88 | 1010.5 |
| 20260506201559 | 13 | 300 | 3.2 | 8.0 | 0.00 | 0.94 | 0.94 | 88 | 1010.5 |
| 20260506200059 | 13 | 161 | 0.0 | 0.0 | 0.00 | 0.94 | 0.94 | 89 | 1010.6 |
| 20260506194628 | 13 | 161 | 0.0 | 0.0 | 0.00 | 0.94 | 0.94 | 89 | 1010.4 |
| 20260506193104 | 13 | 161 | 0.0 | 0.0 | 0.00 | 0.94 | 0.94 | 90 | 1010.5 |
| 20260506191554 | 13 | 128 | 0.0 | 0.0 | 0.00 | 0.94 | 0.94 | 91 | 1010.1 |
| 20260506190057 | 12 | 140 | 4.8 | 9.7 | 0.00 | 0.94 | 0.94 | 93 | 1010.4 |
| 20260506184553 | 12 | 153 | 4.8 | 11.3 | 0.00 | 0.94 | 0.94 | 93 | 1010.3 |